sat.trackr.live / text

‹ back to catalog

KUIPER-00437

NORAD 68870 · 2026-095G

PAYLOAD ACTIVE UNKNOWN

§ Identity

Operator
Country
US
Launch date
2026-04-28
Launch site
AFETR
Launch vehicle
Mass (kg)
RCS (m²)

External: N2YO · Heavens-Above · Gunter

§ Orbital elements

Epoch: 2026-05-24T22:53:21.789888Z

Period
93.68 min
Inclination
51.8808°
Eccentricity
0.0007477
Mean motion
15.37189566 rev/d
Perigee alt
449.3 km
Apogee alt
459.5 km
Semi-major
6,832.6 km
B*
6.5054e-4
RAAN
354.8198°
Arg perigee
208.8532°
Mean anomaly
151.2042°
Rev number
415

§ Raw data

KUIPER-004371 68870U 26095G   26144.95372442  .00023763  00000+0  65054-3 0  99972 68870  51.8808 354.8198 0007477 208.8532 151.2042 15.37189566  4158

JSON: /api/v1/satellites/68870 · /tle

For live sub-satellite position, see the globe view (requires WebGL).

§ Visibility from observer

Set your observer location to see the next 7 days of passes ≥ 10°. The values pass through the URL so the page stays shareable.

No JS? Fill the form by hand. The geolocation button needs JavaScript.